STARLINK-36524, 67452

Orbit data source: Space-Track

STARLINK-36524, 67452 is a payload satellite owned by SpaceX/Seattle (US) in LEO that was launched on Wed, 14 Jan 2026 UTC via an FALCON 9 launch vehicle from the Air Force Eastern Test Range (AFETR). Payload-class satellites include a variety of spacecraft equipped with specific instruments for various scientific and technological missions. These include communications satellites like Starlink; space stations such as the ISS; scientific satellites like the Hubble; Earth observation satellites from companies like Planet Labs, Umbra, and HawkEye 360; GPS; miniature CubeSats for education and research; and military/defense satellites.

Loading next visibility...
Identifier
67452, 2026-008H
Orbit
LEO
Country
Flag of USUS
Related business
Manufacturer
SpaceX/Seattle
Mission
Operational spacecraft
Bus & Motor
STARLINK V2MO, Unknown motor
Mass
575 kg wet, ~530 kg dry
Launch date (UTC)
2026-01-14 (2 months ago)
Launch vehicle
FALCON 9
Launch site
Air Force Eastern Test Range (AFETR)
Object type
Payload
Rocket body
Debris
Shape & HBR
Unknown shape, 17.7 m
Radar Cross Section
RCS unknown

Expand to show TLE details & history
Last TLE update: 16 hours ago

TLE from 16 hours ago
0 STARLINK-36524
1 67452U 26008H   26062.51979985  .00039807  00000-0  14470-2 0  9994
2 67452  42.9943 240.4970 0001540 149.0051 211.0892 15.27609222  8628
Epoch: 2026-03-03T12:28Z
TLE epoch observation values (Epoch: 2026-03-03T12:28:30.707Z)
Latitude
0.00003°
Longitude
-107.92861°
Altitude
483.641 km
Speed
7.625 km/s
True Right ascension
16h 01m 59s
True Declination
0° 00' 00"
Sunlit
Object was in daylight at epoch
Visualization orbit readout
Latitude
Unknown
Longitude
Unknown
Altitude
Unknown
Speed
Unknown
Apparent Right ascension
Unknown
Apparent Declination
Unknown
Sunlit
N/A
Visualization observer readout
Local Sidereal Time
08:43:57
Azimuth
Unknown
Elevation
Unknown
Doppler factor
Unknown
Orbital elements
Apogee altitude
485.965 km
Perigee altitude
483.851 km
Semi-major axis
6,863.045 km
Eccentricity
0.00015
Inclination
42.9943°
RAAN
240.497°
Arg. of periapsis
149.0051°
True anomaly
211.08009°
Mean anomaly
211.0892°
Eccentric anomaly
211.08464°
Mean motion
3.8174 °/min
Orbital period
94.3 mins
BSTAR
0.001447
Loading maneuver chart data...
Computing Atmospheric mass density...
Loading historical data...
Loading historical data...
Loading historical data...
Loading historical data...
Loading historical data...
Loading historical data...
Loading historical data...

Documentation

Showing up to 5 results
|